Miscellaneous Local Product
Issued by NWS Hastings, NE

Home | Current Version | Previous Version | Graphics & Text | Print | Product List | Glossary On
Versions: 1 2 3 4 5 6 7 8 9 10 11 12 13 14 15 16 17 18 19 20 21 22 23 24 25 26 27 28 29 30 31 32 33 34 35 36 37 38 39 40 41 42 43 44 45 46 47 48 49 50
000
AXUS43 KGID 041502
MISGRI

GID CWA HOURLY WEATHER ROUNDUP
NATIONAL WEATHER SERVICE HASTINGS NE
1000 AM CDT MON MAY 04 2015

NOTE: "FAIR" INDICATES FEW OR NO CLOUDS BELOW 12,000 FEET WITH NO
SIGNIFICANT WEATHER AND/OR OBSTRUCTIONS TO VISIBILITY.

...SOUTH CENTRAL NEBRASKA...

CITY           SKY/WX    TMP DP  RH WIND       PRES   REMARKS
GRAND ISLAND   CLOUDY    59  34  39 NE18G31   30.05R
HASTINGS       CLOUDY    57  43  59 E9        30.08R
KEARNEY        CLOUDY    57  39  51 N13       30.09R
ORD            CLOUDY    59  29  31 E15G22    30.11R
YORK           CLOUDY    55  45  67 NE18G26   30.03F
AURORA         CLOUDY    57  42  55 NE24      30.03S
LEXINGTON      CLOUDY    58  37  45 NE16      30.09S
HOLDREGE       CLOUDY    55  42  62 NE13      30.08R
HEBRON         LGT RAIN  60  53  77 E8        30.05R

...NEBRASKA PANHANDLE...

CITY           SKY/WX    TMP DP  RH WIND       PRES   REMARKS
CHADRON        CLOUDY    47  43  86 NE9       30.17F
ALLIANCE       CLOUDY    50  39  66 E5        30.16R
SCOTTSBLUFF    CLOUDY    49  42  77 E8        30.16R
SIDNEY         CLOUDY    50  34  54 E10       30.16R

...WESTERN AND NORTH CENTRAL NEBRASKA...

CITY           SKY/WX    TMP DP  RH WIND       PRES   REMARKS
VALENTINE      CLOUDY    58  25  28 E16       30.17S
AINSWORTH      CLOUDY    57  26  30 E13G21    30.16F
ONEILL         CLOUDY    56  32  40 NE15G21   30.16S
BROKEN BOW     CLOUDY    59  30  33 NE16G22   30.13R
IMPERIAL       CLOUDY    54  36  50 NE8       30.13R
NORTH PLATTE   CLOUDY    57  32  38 E16       30.14R
MCCOOK         CLOUDY    58  38  47 NE14      30.08R

...EASTERN NEBRASKA...

CITY           SKY/WX    TMP DP  RH WIND       PRES   REMARKS
NORFOLK        CLOUDY    60  36  40 NE10      30.12R
SO SIOUX CITY  PTSUNNY   64  37  36 NE17      30.12R
TEKAMAH        CLOUDY    62  42  47 N16       30.07F
COLUMBUS       CLOUDY    54  39  58 NE12      30.12F
ALBION         CLOUDY    59  31  34 NE13      30.11S
OMAHA EPPLEY   CLOUDY    63  50  62 NW9       30.08R
MILLARD        CLOUDY    62  51  66 CALM      30.08R
LINCOLN        LGT RAIN  56  51  84 NE15      30.05F
NEBRASKA CITY  CLOUDY    60  58  92 N10       30.05R
BEATRICE       LGT RAIN  59  55  87 NE14      30.03F
FALLS CITY     CLOUDY    67  59  75 E5        30.02R

...NORTHERN KANSAS...

CITY           SKY/WX    TMP DP  RH WIND       PRES   REMARKS
GOODLAND       CLOUDY    55  44  66 NE12      30.09F
HILL CITY      CLOUDY    59  50  72 NE12      30.05R
NORTON         CLOUDY    57  39  51 NE15      30.05R
PHILLIPSBURG   CLOUDY    63  50  63 N12       30.03S
SMITH CENTER   MOSUNNY   59  48  67 N16G22    30.00F
HAYS           CLOUDY    63  46  55 W3        30.05R
RUSSELL        CLOUDY    66  51  58 SW5       30.01S
CONCORDIA      CLOUDY    63  58  83 SE12      30.01S
SALINA         PTSUNNY   71  58  63 S9        30.00R
TOPEKA         MOSUNNY   70  59  68 SW7       30.02R



USA.gov is the U.S. government's official web portal to all federal, state and local government web resources and services.